Snowfall_Accumulation
1.3 1.5 1.9 1.6 1.8 2.0 2.6 4.0 6.3 5.2 1.1 0.2 0.1 0.0 0.0 0.0 0.0 0.0 0.0 0.0 0.1 0.4 0.5 0.4 0.3 0.2 0.1 0.1 0.2 0.3 0.4 0.0 0.0 0.0 0.0 0.0 0.0 0.0
1.7 2.1 2.1 2.1 2.1 2.1 2.5 3.1 4.4 6.1 3.8 0.5 0.1 0.0 0.0 0.0 0.0 0.0 0.0 0.0 0.1 0.2 0.2 0.3 0.2 0.2 0.2 0.2 0.1 0.2 0.3 0.1 0.0 0.0 0.0 0.1 0.1 0.1
1.8 2.3 2.4 2.6 2.9 2.4 2.3 2.5 2.8 3.7 4.2 0.6 0.1 0.0 0.0 0.0 0.0 0.0 0.0 0.0 0.0 0.0 0.1 0.2 0.3 0.3 0.2 0.2 0.2 0.1 0.1 0.1 0.0 0.0 0.0 0.0 0.1 0.1
2.1 2.5 2.7 2.6 2.7 2.4 2.1 2.2 1.9 1.9 3.1 2.0 0.3 0.1 0.1 0.1 0.1 0.1 0.3 0.0 0.2 0.0 0.1 0.2 0.3 0.3 0.3 0.2 0.2 0.2 0.1 0.1 0.1 0.0 0.0 0.0 0.1 0.1
2.4 2.7 2.7 2.6 2.6 2.3 2.3 2.1 1.7 1.4 1.9 2.7 1.3 0.3 0.2 0.2 0.2 0.4 0.3 0.5 0.5 0.0 0.1 0.1 0.2 0.2 0.3 0.3 0.3 0.3 0.2 0.1 0.1 0.1 0.0 0.1 0.1 0.1
1.7 1.7 2.4 3.4 3.3 3.2 3.4 2.9 2.5 2.8 3.0 3.3 2.5 1.5 1.0 0.7 1.1 1.4 1.3 0.7 0.7 0.9 0.4 0.1 0.2 0.3 0.3 0.4 0.4 0.5 0.5 0.5 0.4 0.4 0.4 0.3 0.3 0.2
1.1 1.0 1.9 3.2 3.5 4.7 5.9 5.3 5.1 6.2 6.0 6.1 5.2 4.0 3.2 3.0 3.0 2.5 2.9 1.7 1.0 0.9 0.9 0.4 0.3 0.1 0.0 0.0 0.1 0.4 0.6 0.5 0.6 0.6 0.5 0.5 0.5 0.5
1.2 0.8 1.1 2.2 2.5 3.1 4.2 4.8 5.5 7.7 9.1 9.7 8.7 7.7 5.2 3.6 3.3 3.9 4.3 4.9 4.0 1.2 1.6 1.1 0.5 0.7 0.2 0.2 0.2 0.5 0.7 0.8 0.9 0.9 0.9 0.8 0.7 0.7
1.0 0.8 1.0 1.7 2.3 3.1 3.5 3.0 3.0 4.1 6.7 8.7 10.6 8.2 5.7 4.1 5.5 6.3 6.2 6.8 5.1 2.3 2.5 2.8 0.9 1.3 0.4 0.1 0.2 0.6 0.9 1.0 1.1 1.2 1.2 1.2 1.1 1.1
0.6 0.7 0.9 1.2 2.5 4.6 4.8 4.3 3.7 4.1 5.4 7.0 10.2 9.1 6.3 5.0 7.1 10.0 10.5 9.9 5.3 2.0 2.3 5.5 1.5 1.3 0.7 0.5 0.2 0.5 0.7 0.8 1.1 1.2 1.4 1.4 1.4 1.4
0.4 0.5 0.8 1.3 2.6 4.3 5.0 4.5 3.1 2.7 3.1 4.4 5.6 7.4 6.6 5.8 5.4 9.5 12.7 13.2 9.4 3.5 2.3 4.8 2.6 1.8 1.4 1.1 0.5 0.3 0.5 0.7 1.0 1.1 1.4 1.4 1.6 1.6
0.7 0.5 0.9 2.2 3.1 3.7 4.5 5.0 6.4 4.6 3.5 3.2 3.5 3.9 4.6 5.2 4.0 7.3 9.4 12.2 11.1 7.6 3.6 4.7 4.2 4.5 4.8 1.8 1.3 0.9 0.5 0.4 0.5 0.7 0.9 1.1 1.5 1.4
2.0 1.2 0.9 2.3 2.9 2.9 3.5 4.6 8.0 6.4 4.3 4.5 4.2 4.1 4.3 5.4 6.9 8.9 9.5 10.9 12.3 10.3 5.8 8.1 8.4 6.8 8.7 4.5 2.5 2.0 1.0 0.8 0.6 0.7 0.4 0.6 1.0 1.3
2.6 1.4 1.3 2.1 2.2 2.3 2.8 3.3 3.7 3.9 4.4 4.5 4.3 4.4 4.7 5.9 6.3 8.1 11.0 12.5 9.9 7.6 5.7 9.1 13.2 10.7 10.8 8.5 4.9 3.4 2.3 2.0 2.0 1.7 1.3 1.1 1.2 1.1
2.3 1.6 1.7 1.9 1.9 2.1 2.1 2.8 3.0 4.1 5.8 6.0 5.2 4.5 5.1 6.0 6.3 6.8 8.2 10.2 10.1 8.0 5.7 6.0 9.4 10.1 11.2 10.7 6.6 4.3 3.5 2.3 2.0 1.7 1.7 1.5 1.5 1.6
2.7 2.2 2.5 2.4 2.3 1.9 1.9 2.4 2.9 4.0 6.0 7.0 5.7 4.5 4.4 5.1 6.0 7.2 8.3 9.9 10.4 8.5 6.4 4.8 6.4 9.1 9.7 7.1 6.5 5.0 3.8 3.7 2.4 2.1 1.9 1.6 1.1 1.1
4.7 5.4 4.3 3.3 3.2 2.7 2.3 2.0 2.4 3.2 4.6 4.7 5.2 5.1 4.6 4.7 5.1 6.1 8.5 10.1 12.1 12.1 11.0 6.4 6.8 7.5 7.2 7.7 7.5 5.1 3.6 3.4 3.0 2.7 2.8 2.5 1.5 1.3
4.9 6.4 4.5 3.6 3.3 3.4 3.3 3.1 2.5 2.7 3.2 3.7 4.5 5.1 5.4 5.9 5.7 5.5 7.4 9.9 11.9 12.4 13.1 12.5 9.9 10.7 10.3 9.5 8.1 6.1 4.3 3.5 3.3 3.0 3.2 3.9 2.5 1.2
4.6 4.2 3.3 3.3 3.3 3.4 3.4 3.7 3.1 2.5 3.0 3.8 4.1 4.5 5.1 5.6 5.6 5.9 6.4 8.2 10.2 11.8 12.9 12.6 12.3 13.4 14.5 16.3 12.1 5.7 5.7 4.5 3.3 2.9 2.7 3.6 3.6 2.2
3.1 3.6 3.3 2.9 3.2 3.6 3.7 3.7 3.2 2.9 3.1 3.6 3.8 3.9 4.5 5.3 5.8 5.7 6.3 7.8 9.5 11.0 11.6 12.4 13.7 14.7 16.9 15.7 15.0 10.5 5.7 5.3 5.1 4.2 2.9 2.8 2.8 2.0
2.8 2.9 3.1 3.4 3.5 3.6 3.9 3.9 3.7 3.9 3.7 3.8 4.0 4.0 4.1 4.8 5.4 5.2 5.8 6.7 8.6 10.3 11.4 11.3 12.0 13.5 14.1 14.0 13.2 11.1 9.7 7.0 4.8 6.1 6.0 6.5 6.3 5.2
2.8 3.1 3.2 3.2 3.6 3.9 4.1 3.9 4.3 3.9 3.8 4.1 3.8 3.7 3.7 4.0 4.7 4.9 5.5 6.5 7.4 8.7 10.1 10.4 10.7 12.2 14.6 15.7 14.7 12.4 11.0 9.5 6.8 4.9 4.4 5.5 9.2 10.8
4.0 4.0 3.7 3.7 3.6 3.9 4.2 4.2 4.7 4.0 3.9 4.0 4.0 3.7 3.7 4.0 4.0 4.6 5.2 5.6 6.7 7.5 8.4 10.0 11.0 11.4 12.9 14.5 15.2 13.7 11.8 10.0 9.2 8.2 6.7 3.0 2.8 3.3